Tolar, TX

4:03 PM CDT on August 29, 2016 (GMT -0500)
Granbury

Weather History for KGDJ - July, 2013

Change the Weather History Date:

Tuesday, July 9, 2013

  Actual Average (KSEP) Record (KSEP)
Temperature  
Mean Temperature 90 °F -  
Max Temperature 102 °F 93 °F 104 °F (1925)
Min Temperature 78 °F 69 °F 59 °F (1952)
Cooling Degree Days 25    
Growing Degree Days 40 (Base 50)    
Moisture  
Dew Point 62 °F    
Average Humidity 43    
Maximum Humidity 72    
Minimum Humidity 21    
Precipitation  
Precipitation 0.00 in - - ()
Sea Level Pressure  
Sea Level Pressure 30.07 in    
Wind  
Wind Speed 8 mph (South)    
Max Wind Speed 15 mph    
Max Gust Speed 24 mph    
Visibility 10 miles    
Events      
Averages and records for this station are not official NWS values.
T = Trace of Precipitation, MM = Missing Value Source: NWS Daily Summary

Daily Weather History Graph

Daily Weather History Graph

Search for Another Location

Airport or City:

Trip Planner

Search our weather history database for the weather conditions in past years. The results will help you decide how hot, cold, wet, or windy it might be!

Date:

Astronomy

Jul. 09, 2013 Rise Set
Actual Time 6:31 AM CDT 8:41 PM CDT
Civil Twilight 6:03 AM CDT 9:09 PM CDT
Nautical Twilight 5:29 AM CDT 9:43 PM CDT
Astronomical Twilight 4:52 AM CDT 10:20 PM CDT
Moon 7:49 AM CDT (7/9) 9:28 PM CDT (7/9)
Length of Visible Light 15h 05m
Length of Day
14h 09m
New Moon, 2% of the Moon is Illuminated
Jul 9
New Moon
Jul 15
First Quarter
Jul 22
Full
Jul 29
Last Quarter
Aug 6
New

Hourly Weather History & Observations

Time (CDT) Temp. Heat Index Dew Point Humidity Pressure Visibility Wind Dir Wind Speed Gust Speed Precip Events Conditions
12:15 AM 83.5 °F 84.1 °F 62.1 °F 48% 30.10 in 10.0 mi SSE 5.8 mph - N/A   Clear
12:35 AM 82.6 °F 83.6 °F 62.6 °F 51% 30.09 in 10.0 mi South 3.5 mph - N/A   Clear
12:55 AM 81.7 °F 82.7 °F 62.6 °F 52% 30.09 in 10.0 mi South 5.8 mph - N/A   Clear
1:15 AM 81.1 °F 82.4 °F 63.0 °F 54% 30.09 in 10.0 mi South 4.6 mph - N/A   Clear
1:35 AM 80.8 °F 82.2 °F 63.5 °F 56% 30.09 in 10.0 mi SSE 5.8 mph - N/A   Clear
1:55 AM 81.5 °F 83.1 °F 64.4 °F 56% 30.09 in 10.0 mi SSE 5.8 mph - N/A   Clear
2:15 AM 81.5 °F 83.3 °F 64.9 °F 57% 30.10 in 10.0 mi SSE 5.8 mph - N/A   Clear
2:35 AM 81.5 °F 83.6 °F 66.0 °F 59% 30.09 in 10.0 mi SSE 9.2 mph - N/A   Clear
2:55 AM 81.3 °F 83.6 °F 66.9 °F 61% 30.09 in 10.0 mi South 9.2 mph - N/A   Clear
3:15 AM 81.1 °F 83.9 °F 67.8 °F 64% 30.09 in 10.0 mi South 8.1 mph - N/A   Clear
3:35 AM 81.1 °F 84.0 °F 68.4 °F 65% 30.09 in 10.0 mi South 10.4 mph - N/A   Clear
3:55 AM 81.0 °F 83.9 °F 68.7 °F 66% 30.09 in 10.0 mi South 8.1 mph - N/A   Clear
4:15 AM 80.6 °F 83.5 °F 68.9 °F 67% 30.09 in 10.0 mi South 6.9 mph - N/A   Clear
4:35 AM 80.2 °F 83.1 °F 68.9 °F 68% 30.09 in 10.0 mi South 6.9 mph - N/A   Clear
4:55 AM 79.9 °F - 69.1 °F 69% 30.09 in 10.0 mi South 5.8 mph - N/A   Clear
5:15 AM 79.7 °F - 69.1 °F 70% 30.10 in 10.0 mi South 6.9 mph - N/A   Clear
5:35 AM 79.2 °F - 69.1 °F 71% 30.10 in 10.0 mi SSE 5.8 mph - N/A   Clear
5:55 AM 79.0 °F - 69.1 °F 72% 30.10 in 10.0 mi South 5.8 mph - N/A   Clear
6:15 AM 78.8 °F - 69.1 °F 72% 30.11 in 10.0 mi SSE 4.6 mph - N/A   Clear
6:35 AM 78.8 °F - 69.3 °F 72% 30.11 in 10.0 mi SSE 4.6 mph - N/A   Clear
6:55 AM 78.8 °F - 69.3 °F 72% 30.11 in 10.0 mi South 8.1 mph - N/A   Clear
7:15 AM 79.2 °F - 69.1 °F 71% 30.11 in 10.0 mi SSE 8.1 mph - N/A   Clear
7:35 AM 80.1 °F 82.9 °F 69.1 °F 69% 30.12 in 10.0 mi SSE 8.1 mph - N/A   Clear
7:55 AM 80.8 °F 83.8 °F 69.1 °F 67% 30.12 in 10.0 mi South 10.4 mph - N/A   Clear
8:15 AM 81.9 °F 85.2 °F 69.3 °F 65% 30.12 in 10.0 mi South 13.8 mph - N/A   Clear
8:35 AM 83.1 °F 86.6 °F 69.1 °F 62% 30.13 in 10.0 mi South 11.5 mph - N/A   Clear
8:55 AM 84.0 °F 87.8 °F 69.1 °F 61% 30.14 in 10.0 mi SSW 10.4 mph - N/A   Clear
9:15 AM 85.1 °F 89.1 °F 69.1 °F 59% 30.14 in 10.0 mi SSW 11.5 mph - N/A   Clear
9:35 AM 85.6 °F 89.4 °F 68.7 °F 57% 30.14 in 10.0 mi SSW 8.1 mph 16.1 mph N/A   Clear
9:55 AM 87.1 °F 90.6 °F 68.0 °F 53% 30.14 in 10.0 mi South 12.7 mph - N/A   Clear
10:15 AM 88.3 °F 91.2 °F 67.1 °F 49% 30.14 in 10.0 mi SSW 11.5 mph 17.3 mph N/A   Clear
10:35 AM 90.3 °F 92.6 °F 65.8 °F 44% 30.14 in 10.0 mi SSW 12.7 mph 17.3 mph N/A   Clear
10:55 AM 90.9 °F 92.3 °F 63.9 °F 41% 30.14 in 10.0 mi South 11.5 mph - N/A   Clear
11:15 AM 92.3 °F 93.4 °F 63.0 °F 38% 30.13 in 10.0 mi SSW 11.5 mph 16.1 mph N/A   Clear
11:35 AM 93.0 °F 93.4 °F 61.7 °F 35% 30.13 in 10.0 mi South 10.4 mph 17.3 mph N/A   Clear
11:55 AM 93.4 °F 93.2 °F 60.1 °F 33% 30.12 in 10.0 mi South 12.7 mph 19.6 mph N/A   Clear
12:15 PM 94.8 °F 94.5 °F 59.5 °F 31% 30.12 in 10.0 mi South 13.8 mph 19.6 mph N/A   Clear
12:35 PM 95.5 °F 95.2 °F 59.2 °F 30% 30.12 in 10.0 mi SSW 10.4 mph 24.2 mph N/A   Clear
12:55 PM 97.0 °F 96.1 °F 58.1 °F 27% 30.11 in 10.0 mi South 13.8 mph 18.4 mph N/A   Clear
1:15 PM 97.0 °F 96.5 °F 58.6 °F 28% 30.10 in 10.0 mi South 13.8 mph 23.0 mph N/A   Clear
1:35 PM 97.9 °F 96.6 °F 55.9 °F 25% 30.09 in 10.0 mi SSW 11.5 mph 19.6 mph N/A   Clear
1:55 PM 98.2 °F 97.1 °F 56.7 °F 25% 30.08 in 10.0 mi South 15.0 mph 19.6 mph N/A   Clear
2:15 PM 99.0 °F 98.1 °F 57.6 °F 25% 30.08 in 10.0 mi SSE 12.7 mph 17.3 mph N/A   Clear
2:35 PM 99.5 °F 98.0 °F 55.8 °F 23% 30.07 in 10.0 mi SSE 9.2 mph 18.4 mph N/A   Clear
2:55 PM 100.6 °F 99.1 °F 55.8 °F 22% 30.06 in 10.0 mi SSW 11.5 mph 19.6 mph N/A   Clear
3:15 PM 100.2 °F 99.0 °F 56.3 °F 23% 30.05 in 10.0 mi SSE 10.4 mph 17.3 mph N/A   Clear
3:35 PM 100.9 °F 99.1 °F 54.9 °F 21% 30.05 in 10.0 mi SSW 9.2 mph - N/A   Clear
3:55 PM 100.9 °F 99.6 °F 55.0 °F 22% 30.05 in 10.0 mi SW 8.1 mph 17.3 mph N/A   Clear
4:15 PM 101.3 °F 99.6 °F 55.0 °F 21% 30.04 in 10.0 mi South 9.2 mph - N/A   Clear
4:35 PM 102.0 °F 100.6 °F 55.8 °F 21% 30.03 in 10.0 mi SE 10.4 mph 19.6 mph N/A   Clear
4:55 PM 102.0 °F 100.6 °F 54.7 °F 21% 30.02 in 10.0 mi South 9.2 mph 23.0 mph N/A   Clear
5:15 PM 101.7 °F 100.1 °F 55.4 °F 21% 30.02 in 10.0 mi South 8.1 mph 19.6 mph N/A   Clear
5:35 PM 101.3 °F 100.1 °F 56.3 °F 22% 30.01 in 10.0 mi South 11.5 mph 19.6 mph N/A   Clear
5:55 PM 101.3 °F 100.6 °F 56.7 °F 23% 30.00 in 10.0 mi SE 10.4 mph 17.3 mph N/A   Clear
6:15 PM 101.3 °F 100.6 °F 56.7 °F 23% 30.00 in 10.0 mi South 11.5 mph 23.0 mph N/A   Clear
6:35 PM 100.8 °F 99.8 °F 57.2 °F 23% 30.00 in 10.0 mi South 10.4 mph - N/A   Clear
6:55 PM 100.4 °F 99.7 °F 57.4 °F 24% 29.99 in 10.0 mi South 15.0 mph 23.0 mph N/A   Clear
7:15 PM 99.9 °F 99.0 °F 57.0 °F 24% 29.99 in 10.0 mi SE 13.8 mph - N/A   Clear
7:35 PM 99.5 °F 98.9 °F 57.4 °F 25% 29.99 in 10.0 mi SSE 11.5 mph - N/A   Clear
7:55 PM 98.4 °F 97.3 °F 57.4 °F 25% 29.99 in 10.0 mi SSE 12.7 mph 16.1 mph N/A   Clear
8:15 PM 97.3 °F 96.2 °F 57.6 °F 26% 29.99 in 10.0 mi SSE 10.4 mph - N/A   Clear
8:35 PM 95.9 °F 94.9 °F 57.6 °F 28% 29.99 in 10.0 mi SSE 6.9 mph - N/A   Clear
8:55 PM 95.0 °F 93.7 °F 57.4 °F 28% 29.99 in 10.0 mi SSE 8.1 mph - N/A   Clear
9:15 PM 94.1 °F 93.1 °F 58.6 °F 30% 29.99 in 10.0 mi SSE 8.1 mph - N/A   Clear
9:35 PM 93.4 °F 92.8 °F 59.2 °F 32% 29.99 in 10.0 mi SSE 6.9 mph - N/A   Clear
9:55 PM 92.5 °F 91.9 °F 59.4 °F 33% 30.00 in 10.0 mi SSE 6.9 mph - N/A   Clear
10:15 PM 91.4 °F 91.0 °F 59.9 °F 35% 30.01 in 10.0 mi SSE 4.6 mph - N/A   Clear
10:35 PM 90.3 °F 89.9 °F 60.1 °F 36% 30.02 in 10.0 mi SSE 4.6 mph - N/A   Clear
10:55 PM 88.9 °F 88.5 °F 60.4 °F 38% 30.02 in 10.0 mi SSE 3.5 mph - N/A   Clear
11:15 PM 88.3 °F 88.1 °F 60.8 °F 39% 30.03 in 10.0 mi SSE 4.6 mph - N/A   Clear
11:35 PM 88.7 °F 88.8 °F 61.2 °F 40% 30.03 in 10.0 mi SSE 4.6 mph - N/A   Clear
11:55 PM 87.4 °F 87.4 °F 61.3 °F 41% 30.04 in 10.0 mi SSE 4.6 mph - N/A   Clear